Sioux Falls, SD

5:56 PM CDT on May 23, 2017 (GMT -0500)
Foss

Weather History for KFSD - August, 2013

Change the Weather History Date:

Thursday, August 8, 2013

  Actual Average Record
Temperature  
Mean Temperature 70 °F 72 °F  
Max Temperature 79 °F 83 °F 100 °F (1995)
Min Temperature 61 °F 61 °F 44 °F (1932)
Degree Days  
Heating Degree Days 0 0  
Month to date heating degree days 3 0  
Since 1 June heating degree days 91 59  
Since 1 July heating degree days 22 8  
Cooling Degree Days 5 7  
Month to date cooling degree days 30 62  
Year to date cooling degree days 457 489  
Since 1 June cooling degree days 415 453  
Growing Degree Days 20 (Base 50)    
Moisture  
Dew Point 62 °F    
Average Humidity 80    
Maximum Humidity 97    
Minimum Humidity 62    
Precipitation  
Precipitation 0.30 in 0.09 in 2.02 in (1931)
Month to date precipitation 0.52 0.81  
Year to date precipitation 17.71 17.15  
Snow  
Snow 0.00 in 0.00 in 0.00 in ()
Month to date snowfall 0.0 0.0  
Since 1 June snowfall 0.0 0.0  
Since 1 July snowfall 0.0 0.0  
Snow Depth 0.00 in    
Sea Level Pressure  
Sea Level Pressure 30.00 in    
Wind  
Wind Speed 6 mph (SSW)    
Max Wind Speed 15 mph    
Max Gust Speed 21 mph    
Visibility 9 miles    
Events Rain , Thunderstorm    
T = Trace of Precipitation, MM = Missing Value Source: NWS Daily Summary

Daily Weather History Graph

Daily Weather History Graph

Search for Another Location

Airport or City:

Trip Planner

Search our weather history database for the weather conditions in past years. The results will help you decide how hot, cold, wet, or windy it might be!

Date:

Astronomy

Aug. 08, 2013 Rise Set
Actual Time 6:24 AM CDT 8:40 PM CDT
Civil Twilight 5:52 AM CDT 9:11 PM CDT
Nautical Twilight 5:13 AM CDT 9:50 PM CDT
Astronomical Twilight 4:29 AM CDT 10:34 PM CDT
Moon 8:17 AM CDT (8/8) 9:12 PM CDT (8/8)
Length of Visible Light 15h 19m
Length of Day
14h 15m
Waxing Crescent, 3% of the Moon is Illuminated
Aug 8
Waxing Crescent
Aug 14
First Quarter
Aug 20
Full
Aug 28
Last Quarter
Sep 5
New

Hourly Weather History & Observations

Time (CDT) Temp. Dew Point Humidity Pressure Visibility Wind Dir Wind Speed Gust Speed Precip Events Conditions
12:56 AM 66.9 °F 55.0 °F 66% 30.01 in 10.0 mi ESE 11.5 mph - N/A   Clear
1:56 AM 66.0 °F 55.9 °F 70% 29.99 in 10.0 mi SSE 12.7 mph 19.6 mph N/A   Clear
2:56 AM 63.0 °F 55.9 °F 78% 30.01 in 10.0 mi East 5.8 mph - N/A   Mostly Cloudy
3:56 AM 63.0 °F 55.0 °F 75% 29.99 in 10.0 mi SE 5.8 mph - N/A   Mostly Cloudy
4:56 AM 62.6 °F 53.6 °F 72% 29.96 in 10.0 mi SE 10.4 mph - N/A   Overcast
5:56 AM 62.1 °F 55.9 °F 80% 29.94 in 10.0 mi South 10.4 mph - 0.00 in Rain Light Rain
6:56 AM 62.1 °F 57.0 °F 84% 29.98 in 10.0 mi SSW 8.1 mph - 0.00 in   Mostly Cloudy
7:56 AM 63.0 °F 59.0 °F 87% 30.00 in 10.0 mi South 8.1 mph - N/A   Overcast
8:56 AM 64.9 °F 60.1 °F 84% 30.01 in 10.0 mi SSW 6.9 mph - N/A   Mostly Cloudy
9:56 AM 66.9 °F 61.0 °F 81% 30.02 in 10.0 mi SSW 8.1 mph - N/A   Overcast
10:56 AM 68.0 °F 61.0 °F 78% 30.02 in 10.0 mi South 12.7 mph - N/A   Overcast
11:14 AM 69.8 °F 62.6 °F 78% 30.04 in 10.0 mi South 10.4 mph - N/A   Overcast
11:56 AM 70.0 °F 63.0 °F 78% 30.02 in 10.0 mi South 10.4 mph - N/A   Overcast
12:56 PM 73.0 °F 64.0 °F 73% 30.01 in 10.0 mi SW 6.9 mph - N/A   Overcast
1:24 PM 73.4 °F 64.4 °F 73% 30.02 in 10.0 mi SSW 12.7 mph 17.3 mph N/A   Overcast
1:56 PM 73.0 °F 64.0 °F 73% 29.99 in 10.0 mi SSW 8.1 mph 19.6 mph N/A   Mostly Cloudy
2:18 PM 73.4 °F 64.4 °F 73% 30.00 in 10.0 mi SSW 11.5 mph - N/A   Mostly Cloudy
2:21 PM 73.4 °F 64.4 °F 73% 30.00 in 10.0 mi SW 11.5 mph - N/A   Mostly Cloudy
2:56 PM 73.9 °F 64.0 °F 71% 29.99 in 10.0 mi WSW 6.9 mph - N/A   Mostly Cloudy
3:29 PM 77.0 °F 64.4 °F 65% 29.99 in 10.0 mi SSW 8.1 mph - N/A   Mostly Cloudy
3:40 PM 77.0 °F 64.4 °F 65% 29.99 in 10.0 mi South 10.4 mph - N/A   Mostly Cloudy
3:46 PM 77.0 °F 64.4 °F 65% 29.99 in 10.0 mi SW 6.9 mph - N/A   Mostly Cloudy
3:56 PM 78.1 °F 64.9 °F 64% 29.97 in 10.0 mi Variable 5.8 mph - N/A   Mostly Cloudy
4:44 PM 71.6 °F 64.4 °F 78% 30.00 in 2.0 mi Calm Calm - 0.03 in Rain Heavy Rain
4:49 PM 71.6 °F 66.2 °F 83% 29.99 in 2.0 mi NW 4.6 mph - 0.00 in Rain , Thunderstorm Heavy Thunderstorms and Rain
4:56 PM 70.0 °F 68.0 °F 93% 29.98 in 0.8 mi Calm Calm - 0.10 in Rain , Thunderstorm Heavy Thunderstorms and Rain
5:03 PM 69.8 °F 68.0 °F 94% 29.99 in 2.0 mi WSW 4.6 mph - 0.09 in Rain , Thunderstorm Heavy Thunderstorms and Rain
5:07 PM 69.8 °F 68.0 °F 94% 30.00 in 3.0 mi WSW 5.8 mph - 0.09 in Rain , Thunderstorm Light Thunderstorms and Rain
5:24 PM 69.8 °F 62.6 °F 78% 29.99 in 10.0 mi South 5.8 mph - 0.14 in Rain Light Rain
5:56 PM 73.0 °F 66.9 °F 81% 29.98 in 10.0 mi West 4.6 mph - 0.15 in   Mostly Cloudy
6:56 PM 71.1 °F 63.0 °F 75% 29.98 in 10.0 mi West 4.6 mph - N/A   Mostly Cloudy
7:56 PM 70.0 °F 64.9 °F 84% 29.99 in 10.0 mi Calm Calm - N/A   Mostly Cloudy
8:56 PM 68.0 °F 64.0 °F 87% 29.99 in 10.0 mi Calm Calm - N/A   Mostly Cloudy
9:56 PM 66.0 °F 63.0 °F 90% 30.00 in 10.0 mi WNW 4.6 mph - N/A   Mostly Cloudy
10:56 PM 66.0 °F 64.0 °F 93% 30.01 in 10.0 mi North 5.8 mph - N/A   Mostly Cloudy
11:56 PM 64.0 °F 63.0 °F 96% 30.03 in 7.0 mi NNE 3.5 mph - N/A   Scattered Clouds